Wind_Speed
18 19 20 22 23 24 25 26 27 29 31 33 34 36 37 38 39 40 42 44 46 48 49 50 51 52 53 54 55 56 57 58 60 60 60 59 59 59 59 59 59 59 59
19 20 21 22 24 25 26 28 29 30 32 34 36 36 38 38 40 42 44 46 48 50 51 52 53 55 56 57 58 59 60 61 63 63 64 63 61 61 61 62 62 62 62
21 22 23 24 25 26 27 29 30 32 33 35 36 38 39 40 42 44 46 47 49 51 53 54 56 57 58 59 60 62 63 64 64 65 66 66 64 64 63 63 63 63 63
23 24 24 25 26 27 28 30 31 32 34 35 37 38 40 41 43 46 47 49 51 52 54 55 57 59 60 61 63 64 65 66 66 66 67 68 68 68 66 64 64 64 64
23 25 26 27 27 28 29 31 32 33 34 36 38 39 41 42 44 46 48 50 51 53 55 56 58 60 61 62 64 65 66 67 67 68 68 69 69 69 70 67 66 66 65
25 26 27 28 29 30 31 32 33 34 36 37 39 40 42 44 45 47 49 51 53 54 56 58 59 61 62 63 65 66 67 68 68 69 70 70 70 70 70 70 69 68 66
26 27 27 28 30 31 32 33 35 36 38 40 41 43 44 46 48 49 51 53 54 56 58 60 61 62 64 65 66 67 67 68 69 69 70 70 70 70 70 71 70 69 67
26 27 29 31 32 33 35 37 38 40 41 43 45 47 48 50 51 53 55 56 57 59 60 62 63 64 65 66 67 67 68 69 69 70 70 71 71 71 71 71 71 70 69
29 30 32 34 35 37 39 40 42 43 45 47 48 50 52 54 56 57 59 60 61 62 63 64 65 65 66 67 68 68 69 69 70 70 71 71 71 71 71 71 72 72 71
32 34 35 37 39 41 43 45 47 48 50 52 53 55 57 59 60 62 63 64 65 65 66 66 67 67 68 69 70 70 69 70 69 70 70 69 69 70 70 70 71 71 72
36 38 40 42 44 46 48 50 51 53 55 57 59 60 62 63 65 66 67 67 68 68 68 68 69 69 69 69 69 69 69 69 69 69 69 68 68 69 69 69 69 69 68
41 43 45 47 49 51 53 55 57 59 61 63 65 66 67 69 69 70 70 70 70 70 70 70 70 70 69 69 69 68 68 69 68 68 69 68 68 69 69 69 69 68 67
46 48 50 52 54 57 59 61 63 65 67 68 69 70 71 72 73 73 72 72 72 71 71 71 71 70 69 69 68 68 68 68 68 67 68 67 68 68 67 68 67 67 66
50 53 55 57 60 62 64 67 69 70 71 72 73 74 74 75 75 74 74 73 72 71 71 71 70 69 69 68 68 68 67 67 66 66 66 66 66 66 66 66 65 64 64
54 57 60 62 65 67 69 71 73 74 75 75 76 76 76 76 76 75 74 73 72 71 70 70 69 68 67 67 67 67 66 65 64 64 64 64 65 64 63 63 62 62 62
58 62 64 67 69 72 74 75 76 77 78 78 78 78 77 76 75 73 72 71 70 69 68 67 66 65 65 65 65 64 64 63 62 61 61 61 60 60 61 60 60 60 60
63 66 69 71 73 75 77 79 79 80 80 79 79 78 76 74 72 71 70 68 67 67 66 65 64 62 62 62 62 62 61 60 59 58 57 57 57 58 58 58 59 59 58
68 70 73 75 77 79 80 81 81 81 80 79 77 75 73 71 69 68 66 66 65 63 63 61 60 59 59 59 58 57 57 56 55 55 55 54 54 54 54 55 55 55 55
71 74 76 79 80 82 82 82 81 79 78 75 73 70 69 67 65 63 62 61 60 59 59 57 57 56 55 55 54 54 53 53 53 53 52 52 51 52 53 53 52 52 52
75 77 79 81 82 82 82 80 78 76 74 71 69 66 64 62 60 59 58 58 57 56 55 53 53 52 52 52 51 51 51 50 50 49 49 49 49 50 50 50 50 50 50
78 80 81 81 81 80 79 77 74 72 70 67 64 62 59 58 57 56 55 55 54 53 51 50 50 50 50 49 49 49 49 48 47 47 46 47 48 48 48 48 48 48 49
79 80 81 80 78 76 75 73 70 68 65 63 60 57 56 55 54 54 53 52 51 49 48 47 47 47 47 47 47 46 46 46 45 44 44 45 46 46 46 46 46 47 47
79 80 79 77 74 72 71 69 66 64 61 59 56 55 53 52 52 52 50 49 47 46 45 45 44 44 44 44 44 43 43 43 43 43 43 43 44 44 44 44 44 45 45
78 77 76 74 70 68 66 65 63 61 59 57 55 53 52 51 50 49 47 46 45 44 43 42 42 41 41 41 41 41 41 41 41 41 41 41 41 42 42 42 42 42 42
75 74 72 70 68 65 63 61 60 59 57 55 53 51 49 48 46 45 44 43 42 42 42 41 41 40 39 39 39 39 38 38 38 39 39 39 39 39 39 39 39 40 40
72 70 69 67 65 63 60 58 58 57 55 53 50 48 46 45 44 42 41 41 41 40 40 41 40 39 39 38 37 37 37 37 37 37 36 36 36 37 37 37 37 38 37
Wind_Direction
298 296 293 291 289 287 285 283 281 279 279 279 278 277 277 276 276 275 274 274 274 275 275 276 277 277 278 278 279 279 280 280 281 282 282 282 283 283 283 283 283 283 283
302 300 297 294 292 289 287 286 284 282 280 280 279 280 279 279 278 277 276 275 276 277 278 278 278 279 279 279 279 280 280 281 281 282 282 282 282 282 282 282 282 282 282
304 301 299 296 294 291 290 288 287 285 284 282 282 281 280 280 279 278 278 278 279 279 279 280 280 280 281 281 281 281 281 281 281 282 283 283 283 281 281 281 282 282 281
305 303 300 298 296 294 292 290 288 287 286 285 284 284 283 282 281 281 280 280 280 280 280 280 281 281 281 281 281 281 281 282 282 282 282 283 283 282 281 280 280 280 280
305 304 302 300 298 297 295 294 292 291 290 288 287 286 285 284 283 283 282 282 281 281 281 281 281 281 281 281 281 281 281 282 282 282 282 282 282 283 282 281 280 279 279
305 303 302 301 301 300 299 298 297 295 294 293 291 290 288 287 286 285 285 284 283 283 282 282 281 281 282 282 281 281 282 282 282 282 282 282 282 282 282 281 280 279 279
305 304 304 303 303 303 302 301 299 298 296 295 293 292 291 289 288 287 286 286 285 284 283 282 282 282 282 282 281 281 281 281 281 281 281 281 281 281 281 281 280 279 278
306 306 306 306 305 304 303 301 300 299 297 296 295 294 293 291 290 289 288 287 286 285 284 284 284 283 283 282 281 281 281 280 280 280 280 281 281 280 280 280 280 279 278
308 308 307 306 305 304 302 301 300 299 298 297 296 295 294 292 291 290 289 288 287 286 285 284 284 283 283 282 282 282 281 280 280 280 280 280 280 280 280 279 279 278 278
308 307 306 305 305 304 303 302 301 300 299 298 297 296 294 293 292 291 290 289 288 287 286 285 284 284 283 282 282 281 281 281 280 280 280 280 279 279 279 279 279 278 277
308 308 307 306 305 304 303 303 302 301 300 299 297 296 295 293 292 291 290 289 288 287 286 285 284 284 283 282 281 281 280 280 280 279 279 279 279 278 279 279 279 278 278
309 307 306 306 305 304 303 303 302 301 300 299 298 297 295 294 293 292 291 290 289 288 287 286 285 284 283 281 281 280 280 280 280 279 279 279 278 278 278 278 278 277 277
307 307 306 305 305 304 303 303 302 301 300 299 298 297 296 295 294 293 292 291 290 288 287 286 285 284 282 281 281 280 280 280 280 280 280 279 279 279 278 277 277 276 276
306 305 305 305 304 304 303 303 302 301 300 299 298 297 296 296 295 294 293 292 290 288 287 286 284 283 282 281 280 280 279 280 280 280 280 279 278 278 278 277 277 277 276
305 305 305 305 304 303 303 303 302 302 301 300 299 298 297 296 296 295 293 292 290 288 287 285 284 283 282 281 281 280 280 281 281 280 280 279 278 278 277 277 277 276 276
306 305 305 305 304 304 304 304 303 302 302 301 300 299 299 298 297 295 294 292 290 289 287 286 284 283 282 282 282 281 281 281 281 281 281 280 278 277 276 276 276 276 276
306 306 306 306 305 305 305 305 304 303 302 302 301 300 299 299 298 296 294 293 291 290 289 287 286 284 284 284 284 283 283 283 283 282 282 280 278 277 277 276 276 276 275
306 306 306 306 306 306 306 305 305 304 304 303 302 301 300 299 298 296 295 294 293 292 291 289 287 286 285 285 284 284 284 284 283 282 281 280 279 278 278 277 277 277 276
307 307 307 307 307 307 307 307 306 306 305 305 304 303 301 300 299 298 297 295 294 293 292 290 288 286 286 285 284 284 284 284 283 283 282 281 280 279 278 278 277 277 276
308 308 308 308 308 308 308 307 307 307 306 306 305 304 303 301 300 299 298 297 296 294 292 291 290 288 287 285 285 284 284 284 284 283 282 281 281 280 279 278 278 277 277
308 309 309 309 309 309 309 309 309 308 308 308 307 305 304 303 302 301 301 300 298 296 294 292 291 290 289 287 287 286 286 285 284 283 282 281 281 280 280 279 279 278 278
309 309 310 310 310 310 310 310 310 309 309 309 308 306 306 305 304 303 302 301 299 298 296 295 294 292 291 290 289 288 287 286 285 284 283 282 282 282 281 280 280 279 280
309 310 311 311 311 311 311 311 311 310 310 310 309 308 307 306 305 304 303 302 301 300 298 297 295 294 293 292 291 289 288 287 287 285 284 284 284 283 282 282 281 281 281
310 311 311 312 312 312 311 311 311 311 311 311 310 309 308 308 307 306 305 304 303 302 301 299 298 297 295 293 292 291 290 289 288 287 286 285 285 284 284 283 282 282 281
311 312 313 313 313 313 312 311 311 311 312 312 312 311 310 310 308 307 306 306 305 304 303 301 300 299 297 295 293 293 292 291 290 289 288 286 286 286 286 284 284 283 283
312 312 313 313 313 313 313 312 311 312 312 313 313 313 312 311 310 309 308 307 307 306 305 304 302 301 299 298 296 296 295 294 292 291 290 288 287 287 287 286 284 284 283
Height
5805 5803 5801 5799 5797 5795 5793 5791 5789 5787 5785 5783 5781 5780 5778 5777 5775 5773 5770 5767 5764 5761 5759 5757 5755 5752 5749 5747 5744 5741 5738 5735 5731 5728 5727 5725 5723 5721 5717 5714 5711 5708 5705
5800 5798 5796 5793 5791 5789 5787 5784 5782 5780 5777 5775 5773 5771 5769 5767 5765 5762 5759 5756 5753 5750 5747 5745 5742 5739 5736 5733 5730 5727 5723 5720 5716 5713 5710 5710 5710 5706 5702 5698 5696 5693 5690
5795 5792 5790 5787 5785 5782 5780 5777 5775 5772 5769 5767 5764 5762 5759 5757 5754 5751 5748 5745 5742 5738 5735 5732 5729 5725 5722 5719 5715 5711 5708 5705 5701 5697 5693 5691 5692 5690 5688 5684 5680 5676 5673
5789 5786 5783 5781 5778 5775 5772 5770 5767 5764 5761 5758 5755 5752 5749 5746 5743 5739 5736 5733 5729 5726 5722 5718 5715 5711 5707 5704 5700 5695 5692 5688 5685 5681 5677 5674 5671 5669 5669 5668 5664 5660 5656
5783 5780 5777 5774 5771 5768 5765 5762 5758 5755 5752 5749 5745 5742 5739 5735 5732 5728 5724 5720 5716 5712 5708 5704 5700 5696 5692 5688 5684 5679 5675 5671 5667 5664 5660 5656 5653 5649 5646 5647 5646 5642 5639
5777 5773 5770 5767 5763 5760 5756 5753 5750 5746 5742 5739 5735 5731 5728 5724 5720 5716 5711 5707 5703 5698 5694 5689 5684 5680 5676 5672 5667 5662 5658 5654 5650 5646 5642 5638 5635 5632 5627 5624 5625 5623 5621
5771 5767 5763 5759 5756 5752 5748 5744 5741 5737 5733 5728 5724 5720 5716 5711 5707 5702 5698 5693 5688 5684 5678 5673 5668 5664 5659 5654 5649 5644 5640 5636 5632 5628 5623 5619 5617 5613 5608 5604 5603 5601 5600
5764 5760 5756 5752 5748 5744 5740 5736 5731 5727 5722 5718 5713 5708 5703 5698 5693 5688 5683 5678 5673 5668 5662 5656 5651 5646 5641 5636 5630 5626 5622 5617 5613 5609 5605 5600 5597 5593 5589 5585 5581 5579 5579
5756 5752 5748 5744 5739 5735 5730 5725 5721 5716 5711 5706 5700 5695 5689 5684 5678 5673 5667 5661 5655 5650 5644 5638 5633 5628 5622 5617 5611 5607 5603 5598 5594 5590 5585 5581 5577 5572 5568 5564 5561 5557 5556
5748 5744 5739 5735 5730 5725 5720 5714 5709 5704 5698 5693 5687 5681 5674 5668 5662 5655 5649 5643 5637 5631 5625 5619 5613 5608 5603 5597 5591 5587 5583 5578 5574 5569 5565 5561 5557 5552 5548 5544 5540 5536 5533
5739 5735 5730 5724 5719 5714 5708 5702 5696 5690 5684 5678 5671 5665 5658 5650 5644 5637 5630 5623 5617 5610 5604 5598 5593 5587 5582 5576 5571 5567 5562 5557 5554 5549 5545 5542 5537 5532 5528 5523 5520 5516 5513
5730 5724 5719 5713 5707 5701 5695 5689 5682 5676 5669 5662 5654 5647 5639 5631 5624 5617 5609 5602 5596 5589 5582 5576 5571 5565 5560 5555 5549 5545 5541 5536 5533 5529 5524 5521 5516 5512 5508 5503 5500 5496 5493
5719 5713 5707 5701 5695 5688 5681 5674 5667 5659 5651 5643 5635 5627 5619 5610 5603 5595 5587 5580 5573 5567 5560 5553 5548 5543 5538 5533 5528 5523 5520 5516 5512 5508 5503 5500 5494 5491 5487 5482 5479 5476 5473
5708 5701 5695 5688 5681 5673 5665 5658 5650 5641 5632 5624 5615 5607 5598 5589 5581 5573 5565 5557 5550 5543 5537 5531 5525 5520 5515 5510 5506 5501 5498 5495 5491 5487 5483 5478 5473 5470 5466 5462 5460 5457 5454
5696 5689 5681 5674 5666 5657 5649 5640 5631 5622 5612 5603 5594 5585 5576 5567 5558 5550 5542 5534 5527 5520 5514 5508 5503 5497 5492 5488 5483 5480 5477 5473 5470 5466 5462 5457 5453 5449 5445 5443 5440 5437 5435
5682 5674 5666 5658 5649 5640 5631 5621 5612 5602 5591 5582 5572 5562 5553 5545 5536 5527 5519 5512 5504 5498 5491 5486 5480 5476 5471 5466 5462 5458 5456 5453 5449 5446 5441 5436 5432 5429 5425 5423 5421 5419 5416
5667 5659 5650 5640 5631 5621 5611 5601 5591 5580 5570 5560 5550 5540 5530 5522 5514 5505 5497 5490 5483 5477 5471 5465 5460 5455 5451 5445 5442 5438 5436 5433 5430 5426 5421 5417 5413 5409 5407 5404 5402 5400 5398
5651 5642 5632 5622 5612 5601 5591 5581 5570 5559 5548 5538 5528 5518 5509 5501 5493 5485 5477 5470 5463 5457 5451 5445 5440 5436 5432 5426 5423 5419 5416 5414 5411 5407 5402 5399 5396 5392 5389 5386 5384 5382 5379
5634 5624 5613 5603 5592 5581 5570 5559 5549 5537 5527 5517 5507 5498 5488 5480 5473 5465 5458 5451 5444 5438 5432 5427 5421 5417 5413 5408 5404 5401 5399 5396 5393 5389 5385 5381 5379 5375 5371 5370 5368 5366 5363
5616 5605 5595 5583 5571 5560 5549 5538 5528 5517 5507 5497 5488 5479 5469 5461 5454 5447 5440 5433 5426 5420 5415 5409 5404 5399 5395 5391 5387 5384 5381 5379 5376 5372 5368 5365 5362 5359 5355 5353 5352 5349 5346
5597 5586 5576 5564 5551 5539 5529 5519 5508 5498 5488 5479 5470 5461 5453 5444 5437 5430 5423 5416 5410 5404 5399 5393 5389 5383 5379 5375 5371 5367 5364 5362 5359 5356 5353 5349 5345 5343 5340 5337 5335 5333 5329
5580 5568 5558 5547 5534 5521 5509 5501 5491 5481 5472 5463 5454 5446 5438 5429 5422 5415 5408 5401 5395 5389 5384 5379 5374 5369 5364 5360 5356 5352 5348 5345 5343 5340 5337 5334 5330 5327 5324 5322 5319 5316 5314
5562 5550 5539 5529 5518 5505 5493 5482 5474 5464 5456 5448 5439 5431 5423 5415 5408 5400 5394 5387 5381 5375 5370 5364 5360 5356 5351 5346 5341 5338 5334 5331 5328 5325 5322 5319 5316 5312 5309 5307 5304 5301 5299
5544 5532 5521 5511 5501 5491 5479 5467 5458 5449 5441 5433 5425 5417 5409 5402 5395 5387 5380 5374 5368 5362 5357 5352 5347 5342 5338 5333 5329 5325 5321 5317 5314 5311 5308 5305 5301 5298 5296 5293 5290 5287 5284
5527 5515 5504 5494 5484 5475 5465 5454 5444 5435 5428 5420 5412 5404 5397 5389 5383 5376 5369 5362 5357 5349 5344 5339 5334 5330 5326 5321 5317 5312 5309 5305 5301 5298 5295 5291 5288 5285 5282 5279 5276 5273 5271
5510 5500 5490 5479 5469 5460 5451 5441 5432 5423 5414 5407 5400 5392 5385 5378 5371 5365 5359 5352 5346 5340 5333 5328 5322 5317 5313 5309 5305 5300 5296 5292 5289 5285 5282 5279 5276 5273 5270 5267 5264 5261 5258